Location: Grasslands National Park East Block
(49.0708°N, 106.5295°W)
Time: 20:05:15
(UTC-06:00)

Vanguard 1 - Pass Details

Date: 30 September 2019
Orbit: 653 x 3830 km, 34.2° (Epoch: 20 October)

Event Time Altitude Azimuth Distance (km) Brightness Sun altitude
Rises 03:59:44 0° 263° (W) 7,601 - -29.5°
Reaches altitude 10° 04:04:50 10° 259° (WSW) 6,775 - -28.8°
Exits shadow 04:16:28 35° 240° (WSW) 5,094 13.0 -27.2°
Maximum altitude 04:26:37 51° 193° (SSW) 4,256 12.9 -25.7°
Drops below altitude 10° 04:44:09 10° 125° (SE) 5,574 14.3 -23.2°
Sets 04:47:52 0° 120° (ESE) 6,233 14.7 -22.6°
